Flight Track Log - Related Links

Times and Time Zones

All times are in EDT time to prevent confusion due to time zone crossing. See the SKW6376 flight status page for this flight to view local times or setup timezone preferences in your user account.

Time Position Orientation Groundspeed Altitude Reporting Facility
EDT Latitude Longitude Course Direction KTS MPH feet Rate Location/Type
Mon 02:57:50 AM 37.6667 -122.3667 145° Southeast 164 189 2,300  Level Northern Cal TRACON
Mon 02:58:50 AM 37.7167 -122.3833 345° North 192 221 3,700 1,450 Climbing Northern Cal TRACON
Mon 02:59:50 AM 37.6667 -122.4167 208° Southwest 199 229 5,200 1,600 Climbing Northern Cal TRACON
Mon 03:00:00 AM 37.4760 -122.4563 198° South  Level FlightAware Approximate
Mon 03:00:50 AM 37.6167 -122.4333 195° South 189 217 6,900  Level Northern Cal TRACON
Mon 03:01:00 AM 37.3865 -122.5038 205° Southwest  Level FlightAware Approximate
Mon 03:01:13 AM 37.6092 -122.4339 183° South 188 216 6,900  Level Oakland Center
Mon 03:02:00 AM 37.2982 -122.5553 205° Southwest  Level FlightAware Approximate
Mon 03:02:13 AM 37.5500 -122.4531 194° South 213 245 7,000  Level Oakland Center
Mon 03:03:00 AM 37.2440 -122.5780 145° Southeast  Level FlightAware Approximate
Mon 03:03:14 AM 37.4914 -122.4500 178° South 227 261 6,900  Level Oakland Center
Mon 03:04:14 AM 37.4358 -122.4106 151° Southeast 231 266 6,900 50 Level Oakland Center
Mon 03:05:14 AM 37.3794 -122.3831 159° South 221 254 7,000 50 Climbing Oakland Center
Mon 03:06:14 AM 37.3217 -122.3478 154° Southeast 226 260 7,000  Level Oakland Center
Mon 03:07:15 AM 37.2631 -122.3136 155° Southeast 232 267 7,000  Level Oakland Center
Mon 03:08:15 AM 37.2058 -122.2797 155° Southeast 228 262 7,000  Level Oakland Center
Mon 03:09:15 AM 37.1472 -122.2458 155° Southeast 231 266 7,000  Level Oakland Center
Mon 03:10:15 AM 37.0886 -122.2111 155° Southeast 233 268 7,000  Level Oakland Center
Mon 03:11:16 AM 37.0306 -122.1764 154° Southeast 232 267 7,000 -397 Level Oakland Center
Mon 03:12:16 AM 36.9700 -122.1436 157° South 234 269 6,200 -957 Descending Oakland Center
Mon 03:12:50 AM 36.9167 -122.1167 158° South 264 304 5,500 -1,000 Descending Northern Cal TRACON
Mon 03:13:16 AM 36.9031 -122.1050 146° Southeast 252 290 5,200 -1,200 Descending Oakland Center
Mon 03:13:50 AM 36.8500 -122.0833 162° South 272 313 4,300 -830 Descending Northern Cal TRACON
Mon 03:14:50 AM 36.7833 -122.0333 149° Southeast 246 283 3,900 -150 Descending Northern Cal TRACON
Mon 03:15:50 AM 36.7333 -122.0000 152° Southeast 248 285 4,000 -444 Climbing Northern Cal TRACON
Mon 03:16:38 AM 36.6833 -122.0167 195° South 258 297 3,100 -1,000 Descending Northern Cal TRACON
Mon 03:17:38 AM 36.7000 -122.1000 284° West 211 243 2,200 -545 Descending Northern Cal TRACON
Mon 03:18:17 AM 36.6828 -122.1272 232° Southwest 236 272 2,200  Level Oakland Center
Mon 03:18:38 AM 36.6667 -122.1167 152° Southeast 221 254 2,200 74 Level Northern Cal TRACON
Mon 03:19:38 AM 36.6500 -122.0500 107° East 213 245 2,300 150 Climbing Northern Cal TRACON
Mon 03:20:38 AM 36.6333 -121.9833 107° East 174 200 2,500 -250 Climbing Northern Cal TRACON
Mon 03:21:38 AM 36.6167 -121.9333 113° Southeast 155 178 1,800 -700 Descending Northern Cal TRACON

Login

Don't have an account? Register now (free) for customized features, flight alerts, and more!